Chattanooga, TN

3:03 AM EDT on May 23, 2018 (GMT -0400)
Lovell

Weather History for KCHA - November, 2013

Change the Weather History Date:

Sunday, November 3, 2013

  Actual Average Record
Temperature  
Mean Temperature 52 °F 56 °F  
Max Temperature 62 °F 67 °F 83 °F (2016)
Min Temperature 41 °F 44 °F 19 °F (1954)
Degree Days  
Heating Degree Days 13 10  
Month to date heating degree days 25 28  
Since 1 July heating degree days 154 200  
Cooling Degree Days 0 0  
Month to date cooling degree days 0 0  
Year to date cooling degree days 1752 1737  
Growing Degree Days 2 (Base 50)    
Moisture  
Dew Point 38 °F    
Average Humidity 63    
Maximum Humidity 89    
Minimum Humidity 36    
Precipitation  
Precipitation 0.00 in 0.14 in 1.36 in (1923)
Month to date precipitation 0.17 0.41  
Year to date precipitation 56.78 42.99  
Snow  
Snow 0.00 in 0.00 in - ()
Month to date snowfall 0.0 0.0  
Since 1 July snowfall 0.0 0.0  
Since 1 September snowfall 0.0 0.0  
Snow Depth 0.00 in    
Sea Level Pressure  
Sea Level Pressure 30.23 in    
Wind  
Wind Speed 5 mph (North)    
Max Wind Speed 13 mph    
Max Gust Speed 21 mph    
Visibility 10 miles    
Events      
T = Trace of Precipitation, MM = Missing Value Source: NWS Daily Summary

Daily Weather History Graph

Daily Weather History Graph

Search for Another Location

Airport or City:

Astronomy

Nov. 03, 2013 Rise Set
Actual Time 7:03 AM EST 5:44 PM EST
Civil Twilight 6:37 AM EST 6:10 PM EST
Nautical Twilight 6:07 AM EST 6:40 PM EST
Astronomical Twilight 5:37 AM EST 7:10 PM EST
Moon 7:06 AM EST (11/3) 5:59 PM EST (11/3)
Length of Visible Light 11h 32m
Length of Day
10h 40m
New Moon, 0% of the Moon is Illuminated
Nov 3
New Moon
Nov 10
First Quarter
Nov 17
Full
Nov 25
Last Quarter
Dec 2
New

Hourly Weather History & Observations

Time (EST) Temp. Windchill Dew Point Humidity Pressure Visibility Wind Dir Wind Speed Gust Speed Precip Events Conditions
12:53 AM 50.0 °F - 41.0 °F 71% 30.11 in 10.0 mi NNE 8.1 mph - N/A   Clear
1:53 AM 50.0 °F - 41.0 °F 71% 30.12 in 10.0 mi NNE 8.1 mph - N/A   Clear
1:53 AM 46.9 °F - 39.9 °F 77% 30.14 in 10.0 mi Variable 3.5 mph - N/A   Clear
2:53 AM 48.0 °F - 39.9 °F 74% 30.14 in 10.0 mi NNW 10.4 mph - N/A   Clear
3:53 AM 46.0 °F - 39.0 °F 76% 30.17 in 10.0 mi Calm Calm - N/A   Clear
4:53 AM 43.0 °F - 39.0 °F 86% 30.18 in 10.0 mi Calm Calm - N/A   Clear
5:53 AM 43.0 °F - 37.9 °F 82% 30.21 in 9.0 mi Calm Calm - N/A   Clear
6:53 AM 41.0 °F - 37.0 °F 86% 30.22 in 10.0 mi Calm Calm - N/A   Clear
7:53 AM 44.1 °F 40.8 °F 39.0 °F 82% 30.25 in 10.0 mi NNW 5.8 mph - N/A   Clear
8:53 AM 48.9 °F - 37.9 °F 66% 30.27 in 10.0 mi North 10.4 mph - N/A   Clear
9:53 AM 53.1 °F - 37.9 °F 57% 30.29 in 10.0 mi NNE 10.4 mph - N/A   Clear
10:53 AM 55.9 °F - 37.9 °F 51% 30.30 in 10.0 mi NNE 10.4 mph - N/A   Partly Cloudy
11:53 AM 55.9 °F - 37.9 °F 51% 30.30 in 10.0 mi North 4.6 mph - N/A   Scattered Clouds
12:53 PM 59.0 °F - 37.0 °F 44% 30.26 in 10.0 mi North 11.5 mph - N/A   Partly Cloudy
1:53 PM 60.1 °F - 36.0 °F 41% 30.24 in 10.0 mi Variable 3.5 mph - N/A   Clear
2:53 PM 61.0 °F - 37.0 °F 41% 30.22 in 10.0 mi North 9.2 mph - N/A   Clear
3:53 PM 62.1 °F - 35.1 °F 37% 30.22 in 10.0 mi NNE 6.9 mph - N/A   Clear
4:53 PM 60.1 °F - 36.0 °F 41% 30.22 in 10.0 mi North 9.2 mph - N/A   Clear
5:53 PM 57.0 °F - 37.0 °F 47% 30.23 in 10.0 mi North 8.1 mph - N/A   Clear
6:53 PM 53.1 °F - 37.9 °F 57% 30.26 in 10.0 mi Calm Calm - N/A   Partly Cloudy
7:53 PM 46.9 °F - 39.0 °F 74% 30.26 in 10.0 mi Calm Calm - N/A   Clear
8:53 PM 45.0 °F - 39.0 °F 80% 30.27 in 10.0 mi Calm Calm - N/A   Clear
9:53 PM 45.0 °F - 39.0 °F 80% 30.29 in 10.0 mi Calm Calm - N/A   Clear
10:53 PM 44.1 °F - 39.0 °F 82% 30.30 in 10.0 mi Calm Calm - N/A   Clear